Location: Unspecified
(38.0989°N, 0.6729°W)
Time: 02:36:29
(UTC+01:00)

OTV 5 (USA 277) - Visible Passes

Search period start: 24 November 2017 00:00
Search period end: 04 December 2017 00:00
Orbit: 404 x 417 km, 43.0° (Epoch: 07 September)

Date Brightness Start Highest point End Pass type
(mag) Time Alt. Az. Time Alt. Az. Time Alt. Az.
29 Nov ? 20:10:48 10° SW 20:10:50 10° SW 20:10:50 10° SW visible
30 Nov ? 19:20:16 10° SSW 19:22:26 21° SSE 19:22:26 21° SSE visible
01 Dec ? 18:30:09 10° S 18:32:00 14° SE 18:33:52 10° ESE visible
01 Dec ? 20:05:34 10° WSW 20:06:45 20° WSW 20:06:45 20° WSW visible
02 Dec ? 19:14:37 10° SW 19:17:54 53° SSE 19:18:13 50° SE visible
03 Dec ? 18:23:49 10° SW 18:26:54 34° SSE 18:29:39 12° E visible
03 Dec ? 20:00:50 10° W 20:02:24 24° W 20:02:24 24° W visible
